Regional Weather Roundup
Issued by NWS Charleston, SC

Current Version | Previous Version | Graphics & Text | Print | Product List | Glossary On
Versions: 1 2 3 4 5 6 7 8 9 10 11 12 13 14 15 16 17 18 19 20 21 22 23 24 25 26 27 28 29 30 31 32 33 34 35 36 37 38 39 40 41 42 43 44 45 46 47 48 49 50
000 ASUS42 KCHS 211610 RWRCHS REGIONAL WEATHER ROUNDUP NATIONAL WEATHER SERVICE CHARLESTON SC 1200 PM EDT TUE OCT 21 2014 NOTE: "FAIR" INDICATES FEW OR NO CLOUDS BELOW 12,000 FEET WITH NO SIGNIFICANT WEATHER AND/OR OBSTRUCTIONS TO VISIBILITY. NOT ALL STATIONS ARE QUALITY CONTROLLED BY THE NATIONAL WEATHER SERVICE. USE DATA WITH CAUTION...ESPECIALLY DEWPOINT OBSERVATIONS. SCZ027-030-031-034>040-042>050-211700- ...SOUTH CAROLINA... CITY SKY/WX TMP DP RH WIND PRES REMARKS N CHARLESTON SUNNY 77 52 41 NW10 29.96F WATERFRONT PRK N/A 75 N/A N/A W6G13 N/A FORT JOHNSON NOT AVBL JOHNS ISLAND SUNNY 77 59 53 NW7 29.96F PINOPOLIS NOT AVBL MONCKS CORNER FAIR 75 59 57 W5 29.95F SUMMERVILLE FAIR 75 55 50 W8 29.97S BEAUFORT MCAS SUNNY 75 56 51 NW9 29.97F BEAUFORT ARPT FAIR 73 57 56 NW8 29.97F HILTON HEAD IS SUNNY 73 55 53 N6 29.99S GEORGETOWN NOT AVBL WALTERBORO SUNNY 75 48 38 NW7 29.97F ORANGEBURG SUNNY 73 52 47 NW7 29.96F BARNWELL FAIR 75 52 43 W10 29.97F AIKEN FAIR 73 54 49 NW6 30.00F MANNING FAIR 73 55 53 NW5 29.95F KINGSTREE NOT AVBL COLUMBIA SUNNY 73 48 41 SW6 29.95F SUMTER SUNNY 71 52 51 W9 29.93F FLORENCE SUNNY 73 51 46 W8 29.94F MYRTLE BEACH SUNNY 73 54 49 NW8 29.94F N MYRTLE BEACH SUNNY 73 54 51 NW8 29.93F $$ GAZ063-065-086>088-099>101-113>116-118-119-134-136>141-150-211700- ...GEORGIA... CITY SKY/WX TMP DP RH WIND PRES REMARKS SAVANNAH ARPT SUNNY 76 55 48 NW6 29.99F HUNTER AAF SUNNY 75 56 51 VRB6 29.96F FORT STEWART SUNNY 75 54 46 NW3 29.98F STATESBORO NOT AVBL SYLVANIA SUNNY 77 58 51 NW3 29.99F CLAXTON FAIR 75 55 50 W6 30.00S THOMSON SUNNY 72 59 63 NW5 30.04S AUGUSTA-BUSH SUNNY 74 47 38 CALM 29.98F AUGUSTA-DANIEL SUNNY 73 49 42 NW8 29.99S SWAINSBORO FAIR 75 55 50 MISG 30.01S VIDALIA SUNNY 73 54 49 N7 30.01S ALMA SUNNY 75 53 46 NW8 30.01S WAYCROSS SUNNY 78 59 51 NE3 30.00F JESUP FAIR 79 59 50 N5 30.00S BRUNSWICK SUNNY 79 55 44 N6 30.00S SAINT SIMONS SUNNY 77 58 51 N7 29.98F $$ SCZ027-028-034-036>038-045-046-048>050-GAZ119-141-211700- ...LAKE AND SUPPLEMENTAL COASTAL OBSERVATIONS... STATION/POSITION TIME TEMP WIND PRES WAVE SWELL AIR SEA DIR/SP/G HT/PER HT/PER/DIR (UTC) (F) (DEG/KT/KT) (MB) (FT/S) (FT/S/D) UPR LAKE MARION NOT AVBL WINYAH BAY 1500 70 310/ 5 1014.0S LAKE MURRAY 1500 67 190/ 5/ 6 1014.2F ACE BASIN NERRS 1500 71 310/ 2 1015.0S FORT PULASKI 1600 72 300/ 8/ 10 1015.3F SAPELO ISLAND NOT AVBL $$ ANZ835-935-AMZ111-154-330-350-352-354-374-450-454-472-211700- ...C-MAN AND BUOY OBSERVATIONS... STATION/POSITION TIME TEMP WIND PRES WAVE SWELL AIR SEA DIR/SP/G HT/PER HT/PER/DIR (UTC) (F) (DEG/KT/KT) (MB) (FT/S) (FT/S/D) FOLLY BEACH CMAN 1600 75 330/ 5/ 7 1014.8F BUOY 41004 1600 73 79 310/ 10/ 12 1013.9F 2/ 9 2/ 9 BUOY 41008 1600 73 76 350/ 10/ 10 1015.3R 2/10 2/100/10 5E ST. MARYS GA 1600 77 N/A 2/10 FRYING PAN BUOY 1600 71 75 290/ 6/ 8 1014.5F 2/10 2/110/10 BUOY 41025 1600 70 280/ 12/ 16 1013.0F 3/11 2/ 50/11 CAPE LOOKOUT NC 1600 72 290/ 5/ 7 1012.9F BUOY 41002 1504 73 80 210/ 6/ 8 1015.2F 3/ 8 3/100/ 8 BUOY 41010 1600 81 80 270/ 4/ 6 1015.0F 3/10 2/ 60/10 BUOY 41012 NOT AVBL ST AUGUSTINE FL 1600 74 10/ 7/ 8 1015.5F CAPERS NEARSHORE 1500 74 330/ 6/ 8 N/A FRIPP NEARSHORE NOT AVBL $$

USA.gov is the U.S. government's official web portal to all federal, state and local government web resources and services.